Regional Weather Roundup
Issued by NWS

Home | Current Version | Previous Version | Graphics & Text | Print | Product List | Glossary On
Versions: 1 2 3 4 5 6 7 8 9 10 11 12 13 14 15 16 17 18 19 20 21 22 23 24 25 26 27 28 29 30 31 32 33 34 35 36 37 38 39 40 41 42 43 44 45 46 47 48 49 50
000
ASUS45 KBOU 240207
RWRCO

WEATHER ROUNDUP FOR COLORADO
NATIONAL WEATHER SERVICE DENVER/BOULDER CO
800 PM MDT WED JUL 23 2014

NOTE: "FAIR" INDICATES FEW OR NO CLOUDS BELOW 12000 FEET WITH NO
SIGNIFICANT WEATHER AND/OR OBSTRUCTIONS TO VISIBILITY.

COZ001>005-013-030-031-240300-
...NORTHWEST COLORADO...

CITY           SKY/WX    TMP DP  RH WIND       PRES   REMARKS
CRAIG          MOCLDY    81  43  26 NW8       30.21S
HAYDEN         MOCLDY    81  39  22 SE22G29   30.26S
MEEKER         PTCLDY    87  37  17 W16G23    30.23S
MOUNT WERNER   NOT AVBL
STEAMBOAT SPGS MOCLDY    77  43  30 E6        30.32R
WALDEN         CLOUDY    70  41  35 SE5       30.43S
$$

COZ006>008-011-240300-
...WEST CENTRAL VALLEYS...

CITY           SKY/WX    TMP DP  RH WIND       PRES   REMARKS
GRAND JUNCTION PTCLDY    93  39  15 S8        30.09S
MONTROSE       MOCLDY    84  46  26 SE6       30.22R
EAGLE          MOCLDY    79  43  27 S17G24    30.35R
RIFLE          MOCLDY    91  34  13 E6        30.17R
DELTA          MOCLDY    93  40  15 E5        30.15S
NUCLA          MOCLDY    90  34  13 SE7       30.24R
$$

COZ017>023-064>068-240300-
...SOUTHWEST COLORADO...

CITY           SKY/WX    TMP DP  RH WIND       PRES   REMARKS
DURANGO        PTCLDY    85  42  22 S14       30.31R
CORTEZ         CLEAR     90  36  14 S9        30.21S
PAGOSA SPRINGS MOCLDY    80  33  18 CALM      30.43R
TELLURIDE      NOT AVBL
WOLF CREEK PAS NOT AVBL
$$

COZ009-010-012-014-032>034-037-058>063-240300-
...CENTRAL COLORADO...

CITY           SKY/WX    TMP DP  RH WIND       PRES   REMARKS
ASPEN          CLOUDY    70  44  39 SE8       30.47F
BUENA VISTA    CLOUDY    71  40  32 N6        30.52R
COPPER MTN     CLOUDY    59  34  38 S22       30.85R
BERTHOUD PASS  CLOUDY    48  34  57 MISG      30.87F
COTTONWOOD PAS CLOUDY    68  36  30 CALM      30.68R
GUNNISON       MOCLDY    73  39  29 N12G21    30.46F
KREMMLING      PTCLDY    75  34  22 E5G10     30.42S
LEADVILLE      LGT RAIN  57  42  57 SW10G23   30.71R
MONARCH PASS   MOCLDY    57  36  44 NE16      30.92S
SALIDA         CLOUDY   N/A N/A N/A N18G25    30.52R
SUNLIGHT       CLOUDY    54  50  87 E6        30.71S
WILKERSON PASS CLOUDY    55  36  47 NW6       30.83R
$$

COZ069>075-240300-
...SAN LUIS VALLEY/SANGRE DE CRISTO MOUNTAINS...

CITY           SKY/WX    TMP DP  RH WIND       PRES   REMARKS
ALAMOSA        MOCLDY    69  51  52 E15G26    30.42R
LA VETA PASS   MOCLDY    59  43  55 SW8       30.68R
SAGUACHE       PTCLDY    73  43  33 S6        30.45R
$$

COZ035-036-038>040-240300-
...NORTHERN COLORADO FRONT RANGE...

CITY           SKY/WX    TMP DP  RH WIND       PRES   REMARKS
DENVER INTL AP CLOUDY    82  43  25 S14       30.24F
DMNS CITY PARK   N/A     78  45  31 S3G15     30.25S
AURORA         MOCLDY    76  50  40 S13       30.28F
FRONT RANGE AP NOT AVBL
ERIE MUNI ARPT MOCLDY    80  43  26 S14G20    30.22F
BOULDER MUN AP MOCLDY    81  45  28 S5        30.22F
CENTENNIAL     MOCLDY    74  49  41 SW15      30.30F
BROOMFIELD     MOCLDY    81  45  28 S16       30.28F
FORT COLLINS   MOCLDY    81  48  32 S16G23    30.19S
LONGMONT       MOCLDY    82  45  27 S12       30.21F
$$

COZ041-046-047-076>085-087-088-240300-
...PIKES PEAK/PALMER DIVIDE AND SOUTHERN FOOTHILLS...

CITY           SKY/WX    TMP DP  RH WIND       PRES   REMARKS
COLO. SPRINGS  MOCLDY    76  46  34 N8        30.35F
A. F. ACADEMY  MOCLDY    73  46  38 N8        30.38F
ELLICOTT       MOCLDY    78  49  35 N9        30.34R
FALCON         MOCLDY    72  45  38 N10       30.42F
FORT CARSON    CLOUDY    79  46  31 N10       30.32F
LIMON          CLOUDY    82  58  43 S12       30.28S
MONUMENT HILL  MOCLDY    68  45  42 SW8       30.42F
TRINIDAD       MOCLDY    74  48  39 W20G25    30.31R
$$

COZ042>045-048>051-090-091-240300-
...NORTHEAST COLORADO...

CITY           SKY/WX    TMP DP  RH WIND       PRES   REMARKS
GREELEY ARPT   PTCLDY    82  46  28 SW13      30.20F
AKRON          MOCLDY    82  59  45 W3        30.20S
BURLINGTON     MOCLDY    81  63  54 S7        30.20F
WRAY             N/A     87  59  39 SE7       30.15F
STERLING       MOCLDY    86  61  42 S8        30.14S
HOLYOKE        CLEAR     81  64  57 E7        30.15F
FORT MORGAN    MOCLDY    84  55  37 SW8       30.19F
$$

COZ086-089-092>099-240300-
...SOUTHEAST COLORADO...

CITY           SKY/WX    TMP DP  RH WIND       PRES   REMARKS
PUEBLO         PTCLDY    88  53  30 E12       30.19R
LA JUNTA       CLEAR     86  56  35 E6        30.15S
LAMAR          CLEAR     87  61  41 SE15      30.12S
SPRINGFIELD      N/A     83  52  34 S10       30.21R
$$


USA.gov is the U.S. government's official web portal to all federal, state and local government web resources and services.